This demonstration page uses our WeatherBlox Daily Observations layout. Learn more.

Left ArrowRight Arrow

38.88101, -77.10428

Hourly Observations for December 25, 2019

Temp ( °F °C ) Dew Point ( °F °C ) Humidity (%) Winds ( mph kmh ) Pressure ( in mb ) Visibility ( mi km ) Precip ( " mm )
12:52 am 00:52 Clear with Mist and Fog 34 1.1 32 undefined 92 92 N N/A 30.18 1022 6 10 N/A
1:52 am 01:52 Clear with Mist and Fog 33 0.6 31 -0.6 92 92 N N/A 30.19 1022 6 10 N/A
2:52 am 02:52 Clear with Mist and Fog 32 undefined 30 -1.1 92 92 N N/A 30.21 1023 4 6 N/A
3:52 am 03:52 Clear with Mist and Fog 32 undefined 30 -1.1 92 92 N N/A 30.20 1023 4 6 N/A
4:52 am 04:52 Clear with Mist and Fog 31 -0.6 29 -1.7 92 92 NNE 3 6 30.20 1023 5 8 N/A
5:52 am 05:52 Clear with Mist and Fog 30 -1.1 29 -1.7 96 96 NE 3 6 30.20 1023 6 10 N/A
6:52 am 06:52 Mostly Cloudy with Mist and Fog 32 undefined 29 -1.7 88 88 NNE 3 6 30.21 1023 6 10 N/A
7:52 am 07:52 Mostly Cloudy with Mist and Fog 32 undefined 30 -1.1 92 92 N N/A 30.22 1023 6 10 N/A
8:52 am 08:52 Mostly Cloudy with Mist and Fog 34 1.1 30 -1.1 85 85 NE 5 7 30.23 1024 5 8 N/A
9:52 am 09:52 Mostly Cloudy 38 3.3 31 -0.6 76 76 NNE 3 6 30.24 1024 7 11 N/A
10:52 am 10:52 Mostly Cloudy 43 6.1 31 -0.6 63 63 NE 5 7 30.24 1024 8 13 N/A
11:52 am 11:52 Mostly Cloudy 45 7.2 30 -1.1 56 56 ENE 3 6 30.20 1023 10 16 N/A
12:52 pm 12:52 Cloudy 47 8.3 30 -1.1 52 52 SSE 3 6 30.18 1022 10 16 N/A
1:52 pm 13:52 Cloudy 49 9.4 30 -1.1 48 48 SSE 5 7 30.16 1021 10 16 N/A
2:52 pm 14:52 Cloudy 49 9.4 31 -0.6 50 50 S 5 7 30.15 1021 10 16 N/A
3:52 pm 15:52 Mostly Cloudy 48 8.9 31 -0.6 52 52 SSW 5 7 30.14 1021 10 16 N/A
4:52 pm 16:52 Clear 43 6.1 33 0.6 68 68 S 5 7 30.15 1021 10 16 N/A
5:52 pm 17:52 Mostly Cloudy 43 6.1 32 undefined 65 65 S 5 7 30.15 1021 10 16 N/A
6:52 pm 18:52 Mostly Cloudy 39 3.9 33 0.6 79 79 N N/A 30.17 1022 10 16 N/A
7:52 pm 19:52 Mostly Cloudy 38 3.3 31 -0.6 76 76 S 7 11 30.15 1021 10 16 N/A
8:52 pm 20:52 Partly Cloudy 38 3.3 33 0.6 83 83 N N/A 30.15 1021 10 16 N/A
9:52 pm 21:52 Partly Cloudy 36 2.2 32 undefined 86 86 NNE 3 6 30.16 1021 10 16 N/A
10:52 pm 22:52 Partly Cloudy 35 1.7 32 undefined 89 89 NE 5 7 30.17 1022 9 14 N/A
11:52 pm 23:52 Partly Cloudy 35 1.7 33 0.6 93 93 N N/A 30.16 1021 8 13 N/A

Powered by AerisWeather